When you browse on this site, cookies collect data to enhance your experience and personalize the content and advertising you see.
Visit our Privacy Policy to learn more. By continuing to use the site, you agree to this use of cookies and data.
  • In Lithuania
  • List of Countries
  • For 7 days
  • Water Temperature
  • Satellite Maps
  • Weather Map
  • Weather Widgets
  • user-avatar
    Login

    Hourly Weather Coro

    Today, 22 January, Tuesday

    Time Temperature Precipitation Wind Pressure Humidity
    00:00 +26°C° 0 mm 6 mps 758 mmHg 91%
    01:00 +26°C° 0 mm 6 mps 758 mmHg 92%
    02:00 +26°C° 0.1 mm 6 mps 758 mmHg 92%
    03:00 +24°C° 0.1 mm 6 mps 757 mmHg 92%
    04:00 +24°C° 0.1 mm 6 mps 757 mmHg 93%
    05:00 +26°C° 0 mm 6 mps 758 mmHg 91%
    06:00 +26°C° 0 mm 6 mps 758 mmHg 90%
    07:00 +26°C° 0 mm 6 mps 758 mmHg 88%
    08:00 +27°C° 0.1 mm 7 mps 759 mmHg 82%
    09:00 +29°C° 0.1 mm 7 mps 759 mmHg 76%
    10:00 +30°C° 0.1 mm 7 mps 759 mmHg 69%
    11:00 +30°C° 0.1 mm 7 mps 758 mmHg 67%
    12:00 +32°C° 0.1 mm 7 mps 758 mmHg 66%
    13:00 +32°C° 0.1 mm 7 mps 757 mmHg 64%
    14:00 +32°C° 0 mm 8 mps 756 mmHg 61%
    15:00 +32°C° 0 mm 8 mps 756 mmHg 59%
    16:00 +32°C° 0 mm 9 mps 756 mmHg 57%
    17:00 +31°C° 0 mm 8 mps 756 mmHg 65%
    18:00 +28°C° 0 mm 8 mps 757 mmHg 74%
    19:00 +27°C° 0 mm 8 mps 757 mmHg 83%
    20:00 +26°C° 0.1 mm 7 mps 757 mmHg 85%
    21:00 +26°C° 0.1 mm 7 mps 758 mmHg 87%
    22:00 +26°C° 0.1 mm 7 mps 759 mmHg 89%
    23:00 +26°C° 0.1 mm 7 mps 758 mmHg 90%

    Tomorrow, 23 January, Wednesday

    Time Temperature Precipitation Wind Pressure Humidity
    00:00 +26°C° 0.1 mm 7 mps 758 mmHg 90%
    01:00 +26°C° 0.1 mm 7 mps 758 mmHg 91%
    02:00 +24°C° 0.1 mm 7 mps 757 mmHg 91%
    03:00 +24°C° 0.1 mm 7 mps 757 mmHg 91%
    04:00 +24°C° 0.1 mm 6 mps 757 mmHg 92%
    05:00 +24°C° 0 mm 7 mps 757 mmHg 90%
    06:00 +26°C° 0 mm 7 mps 758 mmHg 89%
    07:00 +26°C° 0 mm 7 mps 758 mmHg 87%
    08:00 +28°C° 0 mm 7 mps 759 mmHg 78%
    09:00 +29°C° 0 mm 7 mps 759 mmHg 69%
    10:00 +32°C° 0 mm 8 mps 759 mmHg 60%
    11:00 +33°C° 0 mm 8 mps 758 mmHg 55%
    12:00 +34°C° 0 mm 9 mps 757 mmHg 51%
    13:00 +35°C° 0 mm 9 mps 757 mmHg 47%
    14:00 +34°C° 0 mm 9 mps 756 mmHg 48%
    15:00 +34°C° 0 mm 9 mps 756 mmHg 49%
    16:00 +33°C° 0 mm 10 mps 755 mmHg 51%
    17:00 +31°C° 0 mm 9 mps 755 mmHg 59%
    18:00 +28°C° 0 mm 9 mps 756 mmHg 67%
    19:00 +27°C° 0 mm 8 mps 756 mmHg 75%
    20:00 +26°C° 0 mm 8 mps 757 mmHg 78%
    21:00 +26°C° 0 mm 8 mps 757 mmHg 80%
    22:00 +26°C° 0 mm 8 mps 758 mmHg 82%
    23:00 +26°C° 0 mm 8 mps 757 mmHg 84%

    Day after tomorrow, 24 January, Thursday

    Time Temperature Precipitation Wind Pressure Humidity
    00:00 +24°C° 0 mm 7 mps 757 mmHg 85%
    01:00 +24°C° 0 mm 7 mps 757 mmHg 86%
    02:00 +24°C° 0 mm 7 mps 756 mmHg 87%
    03:00 +24°C° 0 mm 7 mps 756 mmHg 87%
    04:00 +24°C° 0 mm 7 mps 756 mmHg 87%
    05:00 +24°C° 0 mm 7 mps 756 mmHg 87%
    06:00 +24°C° 0 mm 7 mps 757 mmHg 86%
    07:00 +24°C° 0 mm 7 mps 757 mmHg 85%
    08:00 +27°C° 0 mm 7 mps 758 mmHg 79%
    09:00 +28°C° 0 mm 7 mps 758 mmHg 72%
    10:00 +30°C° 0 mm 7 mps 758 mmHg 66%
    11:00 +32°C° 0 mm 7 mps 757 mmHg 60%
    12:00 +34°C° 0 mm 7 mps 757 mmHg 54%
    13:00 +35°C° 0 mm 8 mps 756 mmHg 48%
    14:00 +34°C° 0 mm 8 mps 755 mmHg 51%
    15:00 +34°C° 0 mm 8 mps 755 mmHg 53%
    16:00 +33°C° 0 mm 9 mps 754 mmHg 55%
    17:00 +31°C° 0 mm 8 mps 755 mmHg 62%
    18:00 +29°C° 0 mm 8 mps 755 mmHg 69%
    19:00 +27°C° 0 mm 8 mps 756 mmHg 77%
    20:00 +27°C° 0 mm 7 mps 756 mmHg 80%
    21:00 +26°C° 0 mm 7 mps 757 mmHg 82%
    22:00 +26°C° 0 mm 7 mps 757 mmHg 85%
    23:00 +26°C° 0 mm 7 mps 757 mmHg 86%

    25 January, Friday

    Time Temperature Precipitation Wind Pressure Humidity
    00:00 +26°C° 0 mm 7 mps 757 mmHg 86%
    01:00 +26°C° 0 mm 7 mps 756 mmHg 86%
    02:00 +26°C° 0 mm 7 mps 756 mmHg 87%
    03:00 +26°C° 0 mm 7 mps 756 mmHg 87%
    04:00 +26°C° 0 mm 7 mps 756 mmHg 88%
    05:00 +26°C° 0 mm 7 mps 756 mmHg 87%
    06:00 +26°C° 0 mm 7 mps 757 mmHg 86%
    07:00 +26°C° 0 mm 7 mps 757 mmHg 86%
    08:00 +28°C° 0 mm 7 mps 758 mmHg 77%
    09:00 +30°C° 0 mm 7 mps 758 mmHg 68%
    10:00 +32°C° 0 mm 7 mps 758 mmHg 60%
    11:00 +33°C° 0 mm 7 mps 757 mmHg 56%
    12:00 +34°C° 0 mm 8 mps 756 mmHg 51%
    13:00 +35°C° 0 mm 8 mps 756 mmHg 47%
    14:00 +34°C° 0 mm 8 mps 755 mmHg 48%
    15:00 +34°C° 0 mm 8 mps 755 mmHg 48%
    16:00 +33°C° 0 mm 8 mps 754 mmHg 49%
    17:00 +31°C° 0 mm 8 mps 755 mmHg 58%
    18:00 +29°C° 0 mm 7 mps 755 mmHg 68%
    19:00 +27°C° 0 mm 7 mps 756 mmHg 77%
    20:00 +26°C° 0 mm 7 mps 756 mmHg 81%
    21:00 +26°C° 0 mm 6 mps 756 mmHg 86%
    22:00 +26°C° 0 mm 6 mps 757 mmHg 90%
    23:00 +24°C° 0 mm 6 mps 757 mmHg 90%

    26 January, Saturday

    Time Temperature Precipitation Wind Pressure Humidity
    00:00 +24°C° 0 mm 6 mps 756 mmHg 91%
    01:00 +24°C° 0 mm 6 mps 756 mmHg 91%
    02:00 +25°C° 0 mm 5 mps 756 mmHg 92%
    03:00 +25°C° 0 mm 5 mps 756 mmHg 93%
    04:00 +23°C° 0 mm 5 mps 756 mmHg 93%
    05:00 +25°C° 0 mm 5 mps 756 mmHg 92%
    06:00 +25°C° 0 mm 5 mps 757 mmHg 90%
    07:00 +26°C° 0 mm 6 mps 757 mmHg 88%
    08:00 +27°C° 0 mm 6 mps 757 mmHg 78%
    09:00 +29°C° 0 mm 6 mps 758 mmHg 68%
    10:00 +32°C° 0 mm 6 mps 758 mmHg 59%
    11:00 +33°C° 0 mm 6 mps 757 mmHg 55%
    12:00 +34°C° 0 mm 7 mps 756 mmHg 52%
    13:00 +34°C° 0 mm 7 mps 755 mmHg 49%
    14:00 +34°C° 0 mm 7 mps 755 mmHg 49%
    15:00 +34°C° 0 mm 8 mps 754 mmHg 49%
    16:00 +33°C° 0 mm 8 mps 753 mmHg 49%
    17:00 +30°C° 0 mm 7 mps 754 mmHg 59%
    18:00 +29°C° 0 mm 7 mps 754 mmHg 69%
    19:00 +27°C° 0 mm 7 mps 755 mmHg 79%
    20:00 +26°C° 0 mm 7 mps 755 mmHg 82%
    21:00 +26°C° 0 mm 6 mps 756 mmHg 86%
    22:00 +24°C° 0 mm 6 mps 756 mmHg 90%
    23:00 +24°C° 0 mm 6 mps 756 mmHg 91%

    27 January, Sunday

    Time Temperature Precipitation Wind Pressure Humidity
    00:00 +24°C° 0 mm 6 mps 755 mmHg 91%
    01:00 +24°C° 0 mm 6 mps 755 mmHg 92%
    02:00 +23°C° 0 mm 5 mps 755 mmHg 93%
    03:00 +23°C° 0 mm 5 mps 755 mmHg 93%
    04:00 +23°C° 0 mm 5 mps 755 mmHg 94%
    05:00 +23°C° 0 mm 5 mps 755 mmHg 92%
    06:00 +25°C° 0 mm 5 mps 756 mmHg 90%
    07:00 +25°C° 0 mm 5 mps 756 mmHg 89%
    08:00 +27°C° 0 mm 5 mps 756 mmHg 77%
    09:00 +29°C° 0 mm 5 mps 757 mmHg 66%
    10:00 +32°C° 0 mm 5 mps 757 mmHg 55%
    11:00 +34°C° 0 mm 6 mps 756 mmHg 50%
    12:00 +35°C° 0 mm 6 mps 755 mmHg 45%
    13:00 +36°C° 0 mm 6 mps 755 mmHg 40%
    14:00 +35°C° 0 mm 7 mps 754 mmHg 44%
    15:00 +35°C° 0 mm 7 mps 754 mmHg 47%
    16:00 +34°C° 0 mm 8 mps 753 mmHg 50%
    17:00 +32°C° 0 mm 7 mps 754 mmHg 59%
    18:00 +29°C° 0 mm 7 mps 754 mmHg 69%
    19:00 +27°C° 0 mm 7 mps 755 mmHg 79%
    20:00 +26°C° 0 mm 6 mps 755 mmHg 82%
    21:00 +26°C° 0 mm 6 mps 755 mmHg 86%
    22:00 +24°C° 0 mm 6 mps 755 mmHg 90%
    23:00 +25°C° 0 mm 5 mps 755 mmHg 91%
    Show more